Weather History for Rochester, NH

Change the Weather History Date:

Saturday, January 26, 2013

  Actual Average (KSFM) Record (KSFM)
Temperature  
Mean Temperature 14 °F -  
Max Temperature 21 °F 27 °F 50 °F (2002)
Min Temperature 8 °F 8 °F -16 °F (2009)
Degree Days  
Heating Degree Days 50    
Moisture  
Dew Point -2 °F    
Average Humidity 49    
Maximum Humidity 73    
Minimum Humidity 30    
Precipitation  
Precipitation 0.00 in - - ()
Sea Level Pressure  
Sea Level Pressure 30.05 in    
Wind  
Wind Speed 6 mph (NW)    
Max Wind Speed 20 mph    
Max Gust Speed 28 mph    
Visibility 10 miles    
Events      
Averages and records for this station are not official NWS values.
T = Trace of Precipitation, MM = Missing Value Source: NWS Daily Summary

Daily Weather History Graph

Daily Weather History Graph

Search for Another Location

Airport:

Trip Planner

Search our weather history database for the weather conditions in past years. The results will help you decide how hot, cold, wet, or windy it might be!

Date:

Astronomy

Jan. 26, 2013 Rise Set
Actual Time 7:05 AM EST 4:48 PM EST
Civil Twilight 6:34 AM EST 5:18 PM EST
Nautical Twilight 5:59 AM EST 5:53 PM EST
Astronomical Twilight 5:26 AM EST 6:26 PM EST
Moon 4:41 PM EST (1/26) 6:20 AM EST (1/26)
Length of Visible Light 10h 44m
Length of Day
9h 42m
Full, 100% of the Moon is Illuminated
Jan 26
Full
Jan 26
Full
Feb 3
Last Quarter
Feb 10
New
Feb 17
First Quarter

Hourly Weather History & Observations

Time (EST) Temp. Windchill Dew Point Humidity Pressure Visibility Wind Dir Wind Speed Gust Speed Precip Events Conditions
1:51 AM 15.1 °F - 1.9 °F 56% 30.02 in 10.0 mi Calm Calm - N/A   Overcast
2:51 AM 14.0 °F - 6.1 °F 71% 30.00 in 10.0 mi Calm Calm - N/A   Overcast
3:51 AM 14.0 °F 6.5 °F 1.9 °F 59% 29.99 in 10.0 mi NW 4.6 mph - N/A   Mostly Cloudy
4:51 AM 12.0 °F - 1.9 °F 64% 29.99 in 10.0 mi Calm Calm - N/A   Clear
5:51 AM 10.0 °F 3.6 °F 3.0 °F 73% 30.00 in 10.0 mi NW 3.5 mph - N/A   Clear
6:51 AM 8.1 °F - -0.0 °F 70% 30.02 in 10.0 mi Calm Calm - N/A   Clear
7:51 AM 9.0 °F -2.2 °F -0.0 °F 67% 30.03 in 10.0 mi NW 6.9 mph - N/A   Clear
8:51 AM 12.9 °F 1.6 °F -0.0 °F 56% 30.04 in 10.0 mi NW 8.1 mph - N/A   Clear
9:51 AM 16.0 °F 6.3 °F -0.9 °F 47% 30.04 in 10.0 mi NW 6.9 mph - N/A   Clear
10:51 AM 18.0 °F 6.1 °F -0.0 °F 45% 30.03 in 10.0 mi NW 10.4 mph - N/A   Clear
11:51 AM 19.9 °F 11.1 °F -0.0 °F 42% 30.00 in 10.0 mi NNW 6.9 mph - N/A   Clear
12:51 PM 21.0 °F 9.9 °F -2.9 °F 35% 29.99 in 10.0 mi NW 10.4 mph - N/A   Clear
1:51 PM 21.9 °F 8.7 °F -5.1 °F 30% 29.98 in 10.0 mi NW 15.0 mph 20.7 mph N/A   Clear
2:51 PM 21.0 °F 10.6 °F -6.0 °F 30% 30.01 in 10.0 mi WNW 9.2 mph - N/A   Clear
3:51 PM 19.0 °F 5.6 °F -7.1 °F 31% 30.04 in 10.0 mi WNW 13.8 mph 21.9 mph N/A   Clear
4:51 PM 18.0 °F 3.6 °F -7.1 °F 33% 30.06 in 10.0 mi NW 15.0 mph 24.2 mph N/A   Clear
5:51 PM 17.1 °F 5.8 °F -7.1 °F 34% 30.09 in 10.0 mi WNW 9.2 mph 18.4 mph N/A   Mostly Cloudy
6:51 PM 15.1 °F 0.5 °F -9.0 °F 34% 30.10 in 10.0 mi WNW 13.8 mph 25.3 mph N/A   Overcast
7:51 PM 14.0 °F -3.4 °F -7.1 °F 39% 30.12 in 10.0 mi NW 19.6 mph 27.6 mph N/A   Scattered Clouds
8:51 PM 12.0 °F 0.5 °F -5.1 °F 46% 30.14 in 10.0 mi WNW 8.1 mph - N/A   Clear
9:51 PM 12.0 °F 0.5 °F -4.0 °F 49% 30.13 in 10.0 mi WNW 8.1 mph 18.4 mph N/A   Clear
10:51 PM 12.0 °F -3.4 °F -2.0 °F 53% 30.15 in 10.0 mi WNW 13.8 mph 20.7 mph N/A   Clear
11:51 PM 12.0 °F -4.0 °F -2.0 °F 53% 30.15 in 10.0 mi WNW 15.0 mph 21.9 mph N/A   Clear